Simultaneous Nadir Overpasses (SNOs) Predictions

Prediction of SNOs between NOAA-20 and METOP-B Satellite Orbit:

Table of predicted SNOs for the next 14.0 days since TLE Epoch: 4/2/2020
Index Date (NOAA-20) Time (NOAA-20) Lat,Lon (NOAA-20) SZA (NOAA-20 ) Date (METOP-B) Time (METOP-B) Lat,Lon (METOP-B) SZA (METOP-B ) Distance(km) Time Diff (sec)
1 04/15/2020 20:24:59 73.35,-135.56 63.33 04/15/2020 20:26:07 73.33,-133.35 63.20 70.40 68
2 04/15/2020 21:15:41 -73.24, 31.99 116.80 04/15/2020 21:16:51 -73.21, 33.72 116.92 55.81 70
3 04/15/2020 22:06:23 73.05,-160.28 62.98 04/15/2020 22:07:35 73.00,-159.40 62.88 29.23 72
4 04/15/2020 22:57:06 -73.00, 7.15 117.09 04/15/2020 22:58:18 -72.94, 7.79 117.19 22.20 72
5 04/15/2020 23:47:48 72.80, 174.87 62.69 04/15/2020 23:49:00 72.83, 174.90 62.70 3.21 72
6 04/16/2020 00:38:32 -72.80, -17.81 117.33 04/16/2020 00:39:42 -72.82, -17.80 117.33 1.65 70




NCC Satellite Simultaneous Nadir Overpasses (SNOs) Prediction Service
